Time,TemperatureF,DewpointF,PressureIn,WindDirection,WindDirectionDegrees,WindSpeedMPH,WindSpeedGustMPH,Humidity,HourlyPrecipIn,Conditions,Clouds,dailyrainin,SoftwareType,DateUTC
2013-03-19 00:00:00,30.5,29.0,29.46,SSE,165,9.0,10.0,93,0.00,,,0.00,weatherlink.com 1.10,2013-03-19 04:00:00,
2013-03-19 00:15:00,30.4,29.0,29.45,South,179,7.0,10.0,93,0.00,,,0.00,weatherlink.com 1.10,2013-03-19 04:15:00,
2013-03-19 00:30:00,30.5,29.0,29.45,South,190,7.0,9.0,93,0.00,,,0.00,weatherlink.com 1.10,2013-03-19 04:30:00,
2013-03-19 01:00:00,30.5,29.0,29.43,SW,215,7.0,11.0,93,0.00,,,0.00,weatherlink.com 1.10,2013-03-19 05:00:00,
2013-03-19 01:15:00,30.4,29.0,29.43,SW,215,10.0,12.0,94,0.00,,,0.00,weatherlink.com 1.10,2013-03-19 05:15:00,
2013-03-19 01:30:00,30.3,29.0,29.42,SW,227,8.0,12.0,94,0.00,,,0.00,weatherlink.com 1.10,2013-03-19 05:30:00,
2013-03-19 01:45:00,30.3,29.0,29.42,SSW,211,6.0,10.0,94,0.00,,,0.00,weatherlink.com 1.10,2013-03-19 05:45:00,
2013-03-19 02:00:00,30.3,29.0,29.41,SW,223,8.0,9.0,95,0.00,,,0.00,weatherlink.com 1.10,2013-03-19 06:00:00,
2013-03-19 02:15:00,30.5,29.0,29.41,SW,225,6.0,10.0,95,0.00,,,0.00,weatherlink.com 1.10,2013-03-19 06:15:00,
2013-03-19 02:30:00,30.9,30.0,29.41,SW,224,11.0,14.0,95,0.00,,,0.00,weatherlink.com 1.10,2013-03-19 06:30:00,
2013-03-19 02:45:00,31.0,30.0,29.42,West,280,10.0,19.0,94,0.00,,,0.00,weatherlink.com 1.10,2013-03-19 06:45:00,
2013-03-19 03:00:00,30.7,29.0,29.42,West,275,16.0,21.0,93,0.00,,,0.00,weatherlink.com 1.10,2013-03-19 07:00:00,
2013-03-19 03:15:00,30.4,28.0,29.42,WNW,300,11.0,20.0,92,0.00,,,0.00,weatherlink.com 1.10,2013-03-19 07:15:00,
2013-03-19 03:30:00,30.2,28.0,29.41,WSW,249,12.0,27.0,92,0.00,,,0.00,weatherlink.com 1.10,2013-03-19 07:30:00,
2013-03-19 03:45:00,30.2,28.0,29.41,WNW,296,18.0,20.0,92,0.00,,,0.00,weatherlink.com 1.10,2013-03-19 07:45:00,
2013-03-19 04:00:00,30.1,28.0,29.42,NW,315,14.0,24.0,93,0.00,,,0.00,weatherlink.com 1.10,2013-03-19 08:00:00,
2013-03-19 04:16:00,29.6,28.0,29.42,West,275,13.0,23.0,93,0.00,,,0.00,weatherlink.com 1.10,2013-03-19 08:16:00,
2013-03-19 04:31:00,28.5,27.0,29.41,West,263,13.0,22.0,94,0.00,,,0.00,weatherlink.com 1.10,2013-03-19 08:31:00,
2013-03-19 04:46:00,27.9,26.0,29.42,WSW,257,17.0,21.0,94,0.00,,,0.00,weatherlink.com 1.10,2013-03-19 08:46:00,
2013-03-19 05:01:00,27.3,25.0,29.42,SW,234,12.0,20.0,92,0.00,,,0.00,weatherlink.com 1.10,2013-03-19 09:01:00,
2013-03-19 05:16:00,26.8,24.0,29.43,WSW,244,10.0,24.0,90,0.00,,,0.00,weatherlink.com 1.10,2013-03-19 09:16:00,
2013-03-19 05:46:00,25.4,24.0,29.43,WSW,247,13.0,23.0,93,0.00,,,0.00,weatherlink.com 1.10,2013-03-19 09:46:00,
2013-03-19 06:46:00,24.4,23.0,29.44,WSW,239,14.0,22.0,94,0.00,,,0.00,weatherlink.com 1.10,2013-03-19 10:46:00,
2013-03-19 07:01:00,24.1,22.0,29.45,WSW,244,18.0,22.0,93,0.00,,,0.00,weatherlink.com 1.10,2013-03-19 11:01:00,
2013-03-19 07:16:00,23.7,22.0,29.45,SW,231,10.0,20.0,94,0.00,,,0.00,weatherlink.com 1.10,2013-03-19 11:16:00,
2013-03-19 08:01:00,23.2,22.0,29.46,SW,215,18.0,22.0,94,0.00,,,0.00,weatherlink.com 1.10,2013-03-19 12:01:00,
2013-03-19 08:16:00,23.1,21.0,29.47,SW,231,16.0,24.0,93,0.00,,,0.00,weatherlink.com 1.10,2013-03-19 12:16:00,
2013-03-19 08:31:00,22.9,21.0,29.46,WSW,245,16.0,25.0,93,0.00,,,0.00,weatherlink.com 1.10,2013-03-19 12:31:00,
2013-03-19 08:46:00,23.0,21.0,29.47,WSW,237,17.0,21.0,93,0.00,,,0.00,weatherlink.com 1.10,2013-03-19 12:46:00,
2013-03-19 09:01:00,23.0,21.0,29.48,WSW,242,13.0,28.0,93,0.00,,,0.00,weatherlink.com 1.10,2013-03-19 13:01:00,
2013-03-19 09:16:00,23.0,21.0,29.48,WSW,246,14.0,24.0,93,0.00,,,0.00,weatherlink.com 1.10,2013-03-19 13:16:00,
2013-03-19 10:01:00,23.2,22.0,29.49,WSW,243,11.0,18.0,94,0.00,,,0.00,weatherlink.com 1.10,2013-03-19 14:01:00,
2013-03-19 10:16:00,23.3,22.0,29.49,WSW,251,18.0,21.0,94,0.00,,,0.00,weatherlink.com 1.10,2013-03-19 14:16:00,
2013-03-19 10:31:00,23.6,22.0,29.49,SW,217,13.0,19.0,93,0.00,,,0.00,weatherlink.com 1.10,2013-03-19 14:31:00,
2013-03-19 10:47:00,23.7,22.0,29.50,West,259,12.0,22.0,93,0.00,,,0.00,weatherlink.com 1.10,2013-03-19 14:47:00,
2013-03-19 11:01:00,24.0,23.0,29.50,West,279,15.0,21.0,94,0.00,,,0.00,weatherlink.com 1.10,2013-03-19 15:01:00,
2013-03-19 11:16:00,24.2,23.0,29.50,WNW,282,15.0,21.0,93,0.00,,,0.00,weatherlink.com 1.10,2013-03-19 15:16:00,
2013-03-19 11:31:00,24.4,23.0,29.51,West,263,13.0,22.0,93,0.00,,,0.00,weatherlink.com 1.10,2013-03-19 15:31:00,
2013-03-19 11:46:00,24.5,23.0,29.51,West,279,14.0,24.0,92,0.00,,,0.00,weatherlink.com 1.10,2013-03-19 15:46:00,
2013-03-19 12:17:00,24.5,22.0,29.52,West,263,14.0,27.0,91,0.00,,,0.00,weatherlink.com 1.10,2013-03-19 16:17:00,
2013-03-19 12:32:00,24.6,22.0,29.53,WNW,292,17.0,26.0,91,0.00,,,0.00,weatherlink.com 1.10,2013-03-19 16:32:00,
2013-03-19 12:47:00,24.3,22.0,29.54,West,281,19.0,25.0,91,0.00,,,0.00,weatherlink.com 1.10,2013-03-19 16:47:00,
2013-03-19 13:02:00,24.3,22.0,29.54,SW,229,18.0,22.0,92,0.00,,,0.00,weatherlink.com 1.10,2013-03-19 17:02:00,
2013-03-19 13:17:00,24.3,22.0,29.54,West,265,13.0,24.0,92,0.00,,,0.00,weatherlink.com 1.10,2013-03-19 17:17:00,
2013-03-19 13:32:00,24.5,23.0,29.55,WSW,242,21.0,23.0,93,0.00,,,0.00,weatherlink.com 1.10,2013-03-19 17:32:00,
2013-03-19 13:47:00,24.8,23.0,29.56,SW,233,13.0,24.0,93,0.00,,,0.00,weatherlink.com 1.10,2013-03-19 17:47:00,
2013-03-19 14:02:00,24.8,23.0,29.56,West,263,15.0,22.0,94,0.00,,,0.00,weatherlink.com 1.10,2013-03-19 18:02:00,
2013-03-19 14:17:00,24.9,24.0,29.57,WSW,248,18.0,21.0,94,0.00,,,0.00,weatherlink.com 1.10,2013-03-19 18:17:00,
2013-03-19 14:32:00,25.3,24.0,29.58,West,270,14.0,24.0,94,0.00,,,0.00,weatherlink.com 1.10,2013-03-19 18:32:00,
2013-03-19 14:47:00,25.4,23.0,29.59,NW,309,19.0,26.0,92,0.00,,,0.00,weatherlink.com 1.10,2013-03-19 18:47:00,
2013-03-19 15:02:00,25.7,24.0,29.59,West,276,12.0,34.0,92,0.00,,,0.00,weatherlink.com 1.10,2013-03-19 19:02:00,
2013-03-19 15:17:00,26.0,24.0,29.59,WNW,282,10.0,26.0,91,0.00,,,0.00,weatherlink.com 1.10,2013-03-19 19:17:00,
2013-03-19 15:32:00,25.8,24.0,29.60,West,276,17.0,31.0,92,0.00,,,0.00,weatherlink.com 1.10,2013-03-19 19:32:00,
2013-03-19 15:47:00,25.8,24.0,29.61,WNW,286,17.0,31.0,92,0.00,,,0.00,weatherlink.com 1.10,2013-03-19 19:47:00,
2013-03-19 16:02:00,25.9,24.0,29.62,WNW,284,10.0,26.0,92,0.00,,,0.00,weatherlink.com 1.10,2013-03-19 20:02:00,
2013-03-19 16:17:00,26.1,24.0,29.62,West,276,17.0,27.0,93,0.00,,,0.00,weatherlink.com 1.10,2013-03-19 20:17:00,
2013-03-19 16:32:00,26.0,24.0,29.63,West,270,15.0,26.0,93,0.00,,,0.00,weatherlink.com 1.10,2013-03-19 20:32:00,
2013-03-19 16:47:00,25.8,24.0,29.64,West,275,14.0,25.0,92,0.00,,,0.00,weatherlink.com 1.10,2013-03-19 20:47:00,
2013-03-19 17:02:00,26.0,24.0,29.65,West,267,15.0,26.0,92,0.00,,,0.00,weatherlink.com 1.10,2013-03-19 21:02:00,
2013-03-19 17:17:00,25.6,24.0,29.65,West,265,21.0,24.0,93,0.00,,,0.00,weatherlink.com 1.10,2013-03-19 21:17:00,
2013-03-19 17:32:00,25.6,24.0,29.66,WSW,252,12.0,23.0,94,0.00,,,0.00,weatherlink.com 1.10,2013-03-19 21:32:00,
2013-03-19 17:47:00,25.6,24.0,29.67,West,260,17.0,22.0,94,0.00,,,0.00,weatherlink.com 1.10,2013-03-19 21:47:00,
2013-03-19 18:02:00,26.0,25.0,29.68,WSW,250,12.0,19.0,94,0.00,,,0.00,weatherlink.com 1.10,2013-03-19 22:02:00,
2013-03-19 18:17:00,26.5,25.0,29.68,West,261,13.0,22.0,95,0.00,,,0.00,weatherlink.com 1.10,2013-03-19 22:17:00,
2013-03-19 18:32:00,26.8,26.0,29.69,WNW,284,22.0,24.0,95,0.00,,,0.00,weatherlink.com 1.10,2013-03-19 22:32:00,
2013-03-19 18:47:00,27.0,26.0,29.70,WNW,285,14.0,26.0,95,0.00,,,0.00,weatherlink.com 1.10,2013-03-19 22:47:00,
2013-03-19 19:02:00,27.1,26.0,29.70,WNW,287,14.0,19.0,94,0.00,,,0.00,weatherlink.com 1.10,2013-03-19 23:02:00,
2013-03-19 19:17:00,27.4,26.0,29.71,WNW,287,15.0,20.0,94,0.00,,,0.00,weatherlink.com 1.10,2013-03-19 23:17:00,
2013-03-19 19:32:00,27.7,26.0,29.72,WNW,303,14.0,27.0,91,0.00,,,0.00,weatherlink.com 1.10,2013-03-19 23:32:00,
2013-03-19 19:48:00,27.9,25.0,29.72,WNW,294,14.0,22.0,89,0.00,,,0.00,weatherlink.com 1.10,2013-03-19 23:48:00,
2013-03-19 20:02:00,28.0,25.0,29.73,WNW,289,16.0,20.0,89,0.00,,,0.00,weatherlink.com 1.10,2013-03-20 00:02:00,
2013-03-19 20:17:00,27.4,25.0,29.74,WNW,302,13.0,24.0,92,0.00,,,0.00,weatherlink.com 1.10,2013-03-20 00:17:00,
2013-03-19 20:32:00,27.5,25.0,29.74,WNW,292,12.0,30.0,89,0.00,,,0.00,weatherlink.com 1.10,2013-03-20 00:32:00,
2013-03-19 20:48:00,27.4,24.0,29.75,NW,323,14.0,27.0,87,0.00,,,0.00,weatherlink.com 1.10,2013-03-20 00:48:00,
2013-03-19 21:03:00,27.4,23.0,29.76,West,265,17.0,24.0,83,0.00,,,0.00,weatherlink.com 1.10,2013-03-20 01:03:00,
2013-03-19 21:18:00,27.1,22.0,29.76,West,279,18.0,25.0,82,0.00,,,0.00,weatherlink.com 1.10,2013-03-20 01:18:00,
2013-03-19 21:33:00,26.9,22.0,29.77,WNW,299,14.0,30.0,83,0.00,,,0.00,weatherlink.com 1.10,2013-03-20 01:33:00,
2013-03-19 21:48:00,26.7,22.0,29.78,NW,315,12.0,30.0,82,0.00,,,0.00,weatherlink.com 1.10,2013-03-20 01:48:00,
2013-03-19 22:03:00,26.6,20.0,29.78,NW,313,25.0,27.0,77,0.00,,,0.00,weatherlink.com 1.10,2013-03-20 02:03:00,
2013-03-19 22:18:00,26.3,20.0,29.78,NNW,327,18.0,23.0,76,0.00,,,0.00,weatherlink.com 1.10,2013-03-20 02:18:00,
2013-03-19 22:33:00,26.2,20.0,29.79,NW,304,24.0,27.0,76,0.00,,,0.00,weatherlink.com 1.10,2013-03-20 02:33:00,
2013-03-19 22:48:00,26.2,19.0,29.79,NNW,331,18.0,24.0,74,0.00,,,0.00,weatherlink.com 1.10,2013-03-20 02:48:00,
2013-03-19 23:03:00,26.3,18.0,29.79,WNW,303,17.0,25.0,71,0.00,,,0.00,weatherlink.com 1.10,2013-03-20 03:03:00,
2013-03-19 23:18:00,26.2,19.0,29.79,WNW,301,13.0,28.0,73,0.00,,,0.00,weatherlink.com 1.10,2013-03-20 03:18:00,
2013-03-19 23:33:00,26.2,17.0,29.79,NW,313,21.0,26.0,69,0.00,,,0.00,weatherlink.com 1.10,2013-03-20 03:33:00,
2013-03-19 23:48:00,26.2,18.0,29.79,NW,308,18.0,28.0,70,0.00,,,0.00,weatherlink.com 1.10,2013-03-20 03:48:00,